Total_Precipitation_Accumulation
1.07 1.23 1.69 2.24 2.63 3.07 3.33 3.25 3.01 3.04 3.15 3.21 3.03 3.21 3.44 3.73 3.95 3.86 3.75 3.68 3.63 3.58 3.58 3.61 3.59 3.46 3.39 3.24 3.05 2.89 2.80 2.61 2.40 2.33 2.06 1.76 1.56 1.49 1.45 1.48 1.54 1.51 1.49
1.09 1.35 1.78 2.09 2.50 2.82 2.96 3.20 3.28 3.27 3.10 3.41 3.65 3.86 4.15 4.28 4.52 4.75 4.83 4.70 4.46 4.23 4.04 3.97 3.79 3.50 3.33 3.21 3.01 2.85 2.71 2.47 2.29 2.26 2.23 1.87 1.61 1.35 1.19 1.26 1.27 1.30 1.41
1.33 1.58 1.87 2.03 2.27 2.66 2.88 3.15 3.42 3.48 3.38 3.79 4.31 4.73 4.99 4.98 5.04 5.09 5.16 5.11 4.69 4.32 4.02 3.74 3.58 3.39 3.21 3.05 2.97 2.83 2.70 2.50 2.33 2.22 2.32 2.20 1.93 1.55 1.37 1.26 1.27 1.32 1.36
1.23 1.45 1.67 2.05 2.15 2.44 2.70 2.94 3.26 3.61 3.90 4.31 4.81 5.37 5.63 5.74 5.65 5.34 5.10 4.78 4.36 3.97 3.54 3.32 3.31 3.16 2.96 2.78 2.59 2.44 2.37 2.32 2.24 2.19 2.06 2.01 1.93 1.80 1.63 1.47 1.45 1.46 1.43
1.13 1.21 1.36 1.68 1.96 2.21 2.45 2.74 3.04 3.42 4.05 4.83 5.38 5.76 6.03 5.99 5.58 5.10 4.52 4.08 3.73 3.42 3.14 2.94 2.97 2.88 2.62 2.38 2.16 1.95 1.88 1.88 1.95 1.96 1.92 1.85 1.79 1.63 1.55 1.54 1.48 1.45 1.42
1.18 1.21 1.29 1.53 1.77 1.93 2.14 2.43 2.82 3.15 3.68 4.38 5.01 5.32 5.53 5.48 5.13 4.52 3.97 3.57 3.18 2.86 2.59 2.33 2.20 2.09 1.91 1.80 1.72 1.60 1.53 1.52 1.61 1.66 1.64 1.63 1.64 1.62 1.59 1.57 1.47 1.45 1.53
1.23 1.22 1.23 1.37 1.56 1.69 1.87 2.08 2.40 2.83 3.19 3.55 4.09 4.27 4.33 4.17 3.81 3.53 3.31 2.92 2.54 2.22 1.96 1.76 1.63 1.56 1.50 1.48 1.48 1.44 1.39 1.30 1.29 1.30 1.35 1.37 1.35 1.38 1.49 1.61 1.66 1.57 1.47
1.14 1.14 1.13 1.26 1.46 1.61 1.78 1.90 2.09 2.45 2.75 2.84 2.99 2.98 2.92 2.85 2.71 2.53 2.29 2.05 1.80 1.65 1.52 1.37 1.27 1.25 1.28 1.26 1.27 1.24 1.17 1.08 1.02 0.98 1.02 1.07 1.08 1.20 1.37 1.50 1.66 1.73 1.55
1.13 1.13 1.13 1.19 1.32 1.44 1.59 1.64 1.65 1.79 1.90 1.97 2.01 2.06 2.05 1.92 1.89 1.82 1.64 1.50 1.35 1.23 1.16 1.08 1.05 1.01 0.97 0.92 0.90 0.90 0.91 0.93 0.94 0.89 0.87 0.89 0.91 1.02 1.15 1.26 1.42 1.60 1.60
1.12 1.14 1.14 1.17 1.15 1.17 1.24 1.34 1.36 1.38 1.40 1.42 1.37 1.45 1.46 1.37 1.27 1.19 1.14 1.05 0.97 0.91 0.89 0.84 0.80 0.78 0.79 0.74 0.70 0.72 0.78 0.81 0.84 0.85 0.81 0.78 0.79 0.85 0.93 1.01 1.13 1.29 1.43
1.20 1.16 1.13 1.06 1.00 0.96 0.95 1.04 1.10 1.14 1.18 1.18 1.17 1.21 1.21 1.12 1.01 0.94 0.89 0.82 0.78 0.76 0.71 0.68 0.65 0.63 0.65 0.68 0.71 0.73 0.75 0.81 0.80 0.79 0.77 0.74 0.74 0.78 0.80 0.86 0.96 1.08 1.20
1.20 1.13 1.08 1.06 0.99 0.93 0.86 0.89 0.91 0.88 0.93 0.98 1.08 1.14 1.08 1.01 0.92 0.83 0.77 0.74 0.68 0.65 0.63 0.65 0.62 0.57 0.56 0.59 0.64 0.67 0.68 0.76 0.78 0.77 0.77 0.74 0.72 0.76 0.76 0.79 0.85 0.97 1.11
1.33 1.21 1.09 1.02 0.96 0.92 0.90 0.87 0.86 0.83 0.85 0.80 0.81 0.90 0.88 0.84 0.78 0.67 0.61 0.57 0.56 0.57 0.56 0.54 0.53 0.53 0.51 0.51 0.52 0.54 0.57 0.65 0.71 0.73 0.78 0.79 0.78 0.76 0.75 0.78 0.84 0.96 1.07
1.33 1.19 1.09 1.01 0.93 0.89 0.89 0.87 0.83 0.75 0.76 0.74 0.75 0.78 0.76 0.75 0.74 0.66 0.59 0.52 0.49 0.48 0.47 0.43 0.43 0.47 0.46 0.41 0.39 0.42 0.46 0.51 0.55 0.58 0.71 0.77 0.76 0.75 0.79 0.83 0.88 0.94 1.07
1.36 1.30 1.18 1.06 0.90 0.81 0.80 0.80 0.81 0.76 0.71 0.73 0.76 0.81 0.75 0.70 0.73 0.73 0.65 0.56 0.51 0.46 0.46 0.43 0.39 0.41 0.39 0.36 0.37 0.37 0.37 0.42 0.45 0.47 0.56 0.63 0.66 0.68 0.72 0.75 0.82 0.93 1.07
1.61 1.56 1.38 1.20 1.02 0.89 0.83 0.81 0.80 0.72 0.65 0.69 0.80 0.84 0.83 0.80 0.81 0.83 0.78 0.69 0.60 0.54 0.46 0.42 0.39 0.39 0.36 0.37 0.35 0.35 0.37 0.41 0.47 0.53 0.55 0.53 0.56 0.55 0.53 0.60 0.67 0.81 0.99
1.67 1.54 1.40 1.26 1.13 1.06 0.95 0.89 0.84 0.75 0.72 0.74 0.77 0.81 0.83 0.87 0.85 0.81 0.78 0.73 0.66 0.59 0.52 0.43 0.42 0.42 0.36 0.31 0.28 0.29 0.36 0.46 0.52 0.56 0.55 0.46 0.46 0.56 0.58 0.59 0.60 0.71 0.83
1.80 1.72 1.53 1.38 1.22 1.06 0.96 0.87 0.78 0.75 0.78 0.80 0.77 0.72 0.70 0.71 0.67 0.66 0.70 0.68 0.65 0.60 0.54 0.46 0.41 0.41 0.31 0.24 0.23 0.26 0.31 0.37 0.40 0.40 0.45 0.53 0.56 0.50 0.51 0.54 0.64 0.72 0.83
1.72 1.64 1.51 1.42 1.30 1.13 0.98 0.88 0.82 0.76 0.76 0.75 0.70 0.61 0.55 0.56 0.55 0.58 0.60 0.58 0.59 0.55 0.48 0.42 0.40 0.41 0.32 0.22 0.19 0.23 0.30 0.34 0.31 0.28 0.31 0.37 0.41 0.40 0.46 0.57 0.74 0.79 0.89
1.25 1.23 1.20 1.17 1.11 0.99 0.86 0.84 0.81 0.72 0.66 0.62 0.56 0.49 0.46 0.48 0.50 0.50 0.54 0.52 0.50 0.43 0.37 0.35 0.36 0.33 0.30 0.21 0.18 0.19 0.24 0.31 0.28 0.30 0.34 0.32 0.27 0.32 0.42 0.60 0.79 0.92 0.97
1.05 0.99 0.95 0.97 0.94 0.83 0.78 0.78 0.73 0.67 0.54 0.46 0.45 0.45 0.45 0.48 0.46 0.46 0.49 0.48 0.41 0.39 0.37 0.37 0.36 0.30 0.23 0.17 0.12 0.12 0.17 0.23 0.28 0.33 0.38 0.36 0.30 0.31 0.38 0.53 0.73 0.90 0.94
1.11 1.01 0.93 0.85 0.76 0.73 0.77 0.78 0.69 0.51 0.42 0.40 0.43 0.45 0.44 0.41 0.39 0.44 0.48 0.42 0.42 0.42 0.43 0.43 0.37 0.29 0.22 0.16 0.12 0.10 0.10 0.13 0.29 0.43 0.39 0.36 0.36 0.35 0.42 0.57 0.75 0.89 1.06
1.04 0.98 0.85 0.74 0.62 0.60 0.66 0.67 0.53 0.35 0.33 0.41 0.46 0.46 0.41 0.47 0.45 0.42 0.41 0.39 0.40 0.37 0.35 0.35 0.33 0.30 0.26 0.21 0.15 0.12 0.12 0.14 0.25 0.38 0.41 0.40 0.38 0.48 0.69 0.81 0.92 1.07 1.25
0.83 0.74 0.70 0.63 0.53 0.47 0.45 0.42 0.31 0.28 0.32 0.41 0.44 0.43 0.45 0.52 0.51 0.43 0.30 0.27 0.29 0.27 0.26 0.29 0.31 0.32 0.32 0.24 0.19 0.19 0.21 0.22 0.27 0.38 0.49 0.55 0.58 0.74 0.95 1.11 1.21 1.29 1.31
0.62 0.57 0.58 0.54 0.42 0.36 0.33 0.26 0.22 0.25 0.32 0.35 0.38 0.39 0.43 0.46 0.48 0.40 0.24 0.17 0.15 0.12 0.15 0.20 0.22 0.29 0.28 0.19 0.17 0.18 0.22 0.25 0.29 0.35 0.53 0.67 0.72 0.85 1.00 1.15 1.23 1.27 1.26
0.51 0.51 0.48 0.44 0.37 0.33 0.30 0.23 0.18 0.21 0.31 0.34 0.31 0.27 0.29 0.31 0.30 0.32 0.27 0.15 0.06 0.05 0.05 0.07 0.10 0.13 0.15 0.13 0.12 0.15 0.20 0.25 0.33 0.42 0.64 0.75 0.75 0.81 0.91 1.02 1.11 1.10 1.07